When you browse on this site, cookies collect data to enhance your experience and personalize the content and advertising you see.
Visit our Privacy Policy to learn more. By continuing to use the site, you agree to this use of cookies and data.
  • In Österreich
  • Länderverzeichnis
  • Für 7 Tage
  • Wassertemperatur
  • Satellitenkarten
  • Wetterkarte
  • News
  • Widgets
  • user-avatar
    Anmelden

    Stündliche Wetter Baltschik

    Heute, 21 Januar, Montag

    Zeit Temperatur Niederschläge Wind Luftdruck Luftfeuchtigkeit
    00:00 +4°C° 0 mm 3 m/S 738 mmHg 96%
    01:00 +4°C° 0 mm 3 m/S 738 mmHg 96%
    02:00 +3°C° 0 mm 4 m/S 738 mmHg 94%
    03:00 +1°C° 0 mm 5 m/S 738 mmHg 93%
    04:00 +1°C° 0 mm 5 m/S 738 mmHg 91%
    05:00 -1°C° 0 mm 6 m/S 738 mmHg 89%
    06:00 -1°C° 0 mm 5 m/S 738 mmHg 90%
    07:00 -1°C° 0 mm 5 m/S 739 mmHg 90%
    08:00 -3°C° 0 mm 6 m/S 739 mmHg 90%
    09:00 -2°C° 0 mm 6 m/S 740 mmHg 87%
    10:00 -1°C° 0 mm 5 m/S 740 mmHg 84%
    11:00 0°C° 0 mm 5 m/S 741 mmHg 81%
    12:00 0°C° 0 mm 5 m/S 741 mmHg 77%
    13:00 +1°C° 0 mm 5 m/S 741 mmHg 73%
    14:00 +1°C° 0 mm 5 m/S 741 mmHg 70%
    15:00 0°C° 0 mm 4 m/S 742 mmHg 73%
    16:00 0°C° 0 mm 4 m/S 742 mmHg 75%
    17:00 0°C° 0 mm 3 m/S 742 mmHg 78%
    18:00 -1°C° 0 mm 3 m/S 742 mmHg 81%
    19:00 -2°C° 0 mm 2 m/S 742 mmHg 85%
    20:00 -2°C° 0 mm 2 m/S 742 mmHg 88%
    21:00 -2°C° 0 mm 2 m/S 743 mmHg 87%
    22:00 -3°C° 0 mm 2 m/S 743 mmHg 87%
    23:00 -3°C° 0 mm 2 m/S 743 mmHg 87%

    Morgen, 22 Januar, Dienstag

    Zeit Temperatur Niederschläge Wind Luftdruck Luftfeuchtigkeit
    00:00 -3°C° 0 mm 2 m/S 743 mmHg 86%
    01:00 -1°C° 0 mm 1 m/S 743 mmHg 86%
    02:00 -1°C° 0 mm 1 m/S 743 mmHg 86%
    03:00 -1°C° 0 mm 1 m/S 743 mmHg 87%
    04:00 -1°C° 0 mm 1 m/S 742 mmHg 89%
    05:00 -1°C° 0 mm 1 m/S 742 mmHg 90%
    06:00 -3°C° 0 mm 2 m/S 742 mmHg 91%
    07:00 -2°C° 0 mm 2 m/S 742 mmHg 92%
    08:00 -2°C° 0 mm 2 m/S 742 mmHg 92%
    09:00 -1°C° 0 mm 3 m/S 742 mmHg 88%
    10:00 -1°C° 0 mm 4 m/S 742 mmHg 83%
    11:00 +1°C° 0 mm 4 m/S 742 mmHg 78%
    12:00 +1°C° 0.2 mm 5 m/S 741 mmHg 80%
    13:00 +1°C° 0.2 mm 5 m/S 740 mmHg 82%
    14:00 +1°C° 0.2 mm 5 m/S 740 mmHg 84%
    15:00 +1°C° 0 mm 5 m/S 739 mmHg 86%
    16:00 +1°C° 0 mm 5 m/S 738 mmHg 89%
    17:00 0°C° 0 mm 4 m/S 738 mmHg 92%
    18:00 +1°C° 0 mm 5 m/S 738 mmHg 93%
    19:00 +1°C° 0 mm 5 m/S 737 mmHg 94%
    20:00 +1°C° 0 mm 6 m/S 737 mmHg 95%
    21:00 +1°C° 0 mm 6 m/S 736 mmHg 95%
    22:00 +2°C° 0 mm 6 m/S 736 mmHg 95%
    23:00 +2°C° 0 mm 6 m/S 736 mmHg 94%

    übermorgen, 23 Januar, Mittwoch

    Zeit Temperatur Niederschläge Wind Luftdruck Luftfeuchtigkeit
    00:00 +2°C° 0 mm 6 m/S 735 mmHg 95%
    01:00 +3°C° 0 mm 6 m/S 734 mmHg 95%
    02:00 +3°C° 0 mm 6 m/S 734 mmHg 95%
    03:00 +3°C° 0.3 mm 6 m/S 733 mmHg 96%
    04:00 +3°C° 0.3 mm 6 m/S 732 mmHg 96%
    05:00 +4°C° 0.3 mm 6 m/S 732 mmHg 96%
    06:00 +4°C° 1.2 mm 7 m/S 731 mmHg 95%
    07:00 +4°C° 1.2 mm 7 m/S 731 mmHg 95%
    08:00 +5°C° 1.2 mm 7 m/S 731 mmHg 94%
    09:00 +5°C° 0 mm 7 m/S 731 mmHg 91%
    10:00 +6°C° 0 mm 7 m/S 731 mmHg 88%
    11:00 +8°C° 0 mm 7 m/S 731 mmHg 86%
    12:00 +9°C° 0 mm 7 m/S 730 mmHg 80%
    13:00 +10°C° 0 mm 6 m/S 730 mmHg 75%
    14:00 +11°C° 0 mm 6 m/S 730 mmHg 69%
    15:00 +10°C° 0.1 mm 5 m/S 730 mmHg 74%
    16:00 +10°C° 0.1 mm 4 m/S 730 mmHg 78%
    17:00 +9°C° 0.1 mm 2 m/S 730 mmHg 83%
    18:00 +8°C° 0 mm 2 m/S 730 mmHg 85%
    19:00 +8°C° 0 mm 2 m/S 730 mmHg 87%
    20:00 +7°C° 0 mm 3 m/S 730 mmHg 89%
    21:00 +7°C° 0 mm 3 m/S 731 mmHg 90%
    22:00 +6°C° 0 mm 4 m/S 731 mmHg 91%
    23:00 +6°C° 0 mm 4 m/S 731 mmHg 93%

    24 Januar, Donnerstag

    Zeit Temperatur Niederschläge Wind Luftdruck Luftfeuchtigkeit
    00:00 +6°C° 0 mm 4 m/S 731 mmHg 93%
    01:00 +6°C° 0 mm 4 m/S 731 mmHg 93%
    02:00 +6°C° 0 mm 4 m/S 731 mmHg 93%
    03:00 +6°C° 0.7 mm 4 m/S 731 mmHg 94%
    04:00 +6°C° 0.7 mm 4 m/S 730 mmHg 95%
    05:00 +6°C° 0.7 mm 4 m/S 730 mmHg 97%
    06:00 +6°C° 0.4 mm 4 m/S 730 mmHg 96%
    07:00 +6°C° 0.4 mm 4 m/S 730 mmHg 96%
    08:00 +6°C° 0.4 mm 4 m/S 730 mmHg 96%
    09:00 +7°C° 0.2 mm 4 m/S 730 mmHg 91%
    10:00 +7°C° 0.2 mm 5 m/S 730 mmHg 87%
    11:00 +8°C° 0.2 mm 5 m/S 731 mmHg 82%
    12:00 +9°C° 0 mm 5 m/S 730 mmHg 78%
    13:00 +9°C° 0 mm 6 m/S 730 mmHg 74%
    14:00 +10°C° 0 mm 6 m/S 730 mmHg 70%
    15:00 +8°C° 0 mm 7 m/S 730 mmHg 77%
    16:00 +6°C° 0 mm 7 m/S 729 mmHg 84%
    17:00 +4°C° 0 mm 7 m/S 729 mmHg 91%
    18:00 +4°C° 0.1 mm 7 m/S 730 mmHg 91%
    19:00 +3°C° 0.1 mm 7 m/S 730 mmHg 91%
    20:00 +3°C° 0.1 mm 7 m/S 730 mmHg 91%
    21:00 +3°C° 0.2 mm 7 m/S 731 mmHg 90%
    22:00 +1°C° 0.2 mm 8 m/S 731 mmHg 90%
    23:00 +1°C° 0.2 mm 8 m/S 731 mmHg 90%

    25 Januar, Freitag

    Zeit Temperatur Niederschläge Wind Luftdruck Luftfeuchtigkeit
    00:00 +1°C° 0.1 mm 8 m/S 731 mmHg 90%
    01:00 +1°C° 0.1 mm 8 m/S 731 mmHg 90%
    02:00 0°C° 0.1 mm 8 m/S 731 mmHg 90%
    03:00 0°C° 0.1 mm 7 m/S 731 mmHg 91%
    04:00 -1°C° 0.1 mm 7 m/S 731 mmHg 91%
    05:00 -1°C° 0.1 mm 7 m/S 731 mmHg 92%
    06:00 -1°C° 0.4 mm 7 m/S 731 mmHg 92%
    07:00 -1°C° 0.4 mm 7 m/S 732 mmHg 92%
    08:00 -2°C° 0.4 mm 6 m/S 732 mmHg 92%
    09:00 -1°C° 0.2 mm 6 m/S 732 mmHg 92%
    10:00 -1°C° 0.2 mm 6 m/S 732 mmHg 92%
    11:00 -1°C° 0.2 mm 6 m/S 733 mmHg 92%
    12:00 -1°C° 0.1 mm 6 m/S 733 mmHg 93%
    13:00 0°C° 0.1 mm 5 m/S 732 mmHg 93%
    14:00 0°C° 0.1 mm 5 m/S 732 mmHg 93%
    15:00 0°C° 0 mm 5 m/S 732 mmHg 93%
    16:00 -1°C° 0 mm 6 m/S 732 mmHg 93%
    17:00 -1°C° 0 mm 6 m/S 732 mmHg 92%
    18:00 -1°C° 0.1 mm 6 m/S 732 mmHg 93%
    19:00 -1°C° 0.1 mm 6 m/S 732 mmHg 94%
    20:00 -1°C° 0.1 mm 6 m/S 733 mmHg 94%
    21:00 -1°C° 0.2 mm 6 m/S 732 mmHg 95%
    22:00 +1°C° 0.2 mm 6 m/S 732 mmHg 95%
    23:00 +1°C° 0.2 mm 6 m/S 732 mmHg 96%

    26 Januar, Samstag

    Zeit Temperatur Niederschläge Wind Luftdruck Luftfeuchtigkeit
    00:00 +1°C° 0.5 mm 6 m/S 732 mmHg 96%
    01:00 0°C° 0.5 mm 7 m/S 731 mmHg 96%
    02:00 0°C° 0.5 mm 7 m/S 731 mmHg 96%
    03:00 0°C° 0.9 mm 7 m/S 731 mmHg 96%
    04:00 0°C° 0.9 mm 7 m/S 731 mmHg 96%
    05:00 +1°C° 0.9 mm 6 m/S 730 mmHg 95%
    06:00 0°C° 0.6 mm 7 m/S 731 mmHg 95%
    07:00 -1°C° 0.6 mm 7 m/S 731 mmHg 94%
    08:00 -1°C° 0.6 mm 7 m/S 731 mmHg 94%
    09:00 -2°C° 0.2 mm 7 m/S 732 mmHg 92%
    10:00 -2°C° 0.2 mm 7 m/S 732 mmHg 91%
    11:00 -2°C° 0.2 mm 7 m/S 732 mmHg 90%
    12:00 -3°C° 0.5 mm 7 m/S 732 mmHg 91%
    13:00 -3°C° 0.5 mm 7 m/S 732 mmHg 91%
    14:00 -4°C° 0.5 mm 7 m/S 732 mmHg 91%
    15:00 -4°C° 0.4 mm 6 m/S 733 mmHg 92%
    16:00 -5°C° 0.4 mm 6 m/S 733 mmHg 92%
    17:00 -6°C° 0.4 mm 5 m/S 733 mmHg 92%
    18:00 -6°C° 0.2 mm 5 m/S 734 mmHg 92%
    19:00 -6°C° 0.2 mm 5 m/S 734 mmHg 93%
    20:00 -6°C° 0.2 mm 6 m/S 734 mmHg 93%
    21:00 -6°C° 0 mm 6 m/S 734 mmHg 93%
    22:00 -6°C° 0 mm 5 m/S 735 mmHg 93%
    23:00 -6°C° 0 mm 5 m/S 735 mmHg 93%
    Mehr zeigen